Location: Herm
(49.4830°N, 2.4500°W)
Time: 20:45:51
(UTC+00:00)

VELOX 1 - Pass Details

Date: 31 October 2021
Orbit: 627 x 641 km, 98.3° (Epoch: 03 December)

Event Time Altitude Azimuth Distance (km) Brightness Sun altitude
Rises 17:48:26 0° 6° (N) 2,956 ? -10.1°
Reaches altitude 10° 17:50:50 10° 356° (N) 2,044 ? -10.4°
Maximum altitude 17:54:43 31° 295° (WNW) 1,143 ? -11.1°
Drops below altitude 10° 17:58:36 10° 234° (SW) 2,035 ? -11.7°
Sets 18:00:59 0° 224° (SW) 2,940 ? -12.1°
